User: anonymous   Login
Location: Caltech
(34.1382°N, 118.1253°W)
Time: 13:47:42
(UTC-07:00)
Language:

Meteor 1-11 Rocket - Orbit

View from above orbital plane
View from above orbital plane
View from above satellite
View from above satellite

Ground track
Ground track

The orbit data is extracted from the following two-line orbital elements,

1  5918U 72022B   17207.78762161 +.00000002 +00000-0 -63272-5 0  9999
2  5918 081.2384 287.5621 0057753 214.3263 145.4169 14.05826077323558
Epoch (UTC): 26 July 2017 18:54:10
Eccentricity: 0.0057753
inclination: 81.2384°
perigee height: 832 km
apogee height: 915 km
right ascension of ascending node: 287.5621°
argument of perigee: 214.3263°
revolutions per day: 14.05826077
mean anomaly at epoch: 145.4169°
orbit number at epoch: 32355

The dashed part of the orbit path shows where the satellite is in the earth's shadow,  

DLR